Huron, SD

8:05 AM CDT on July 29, 2016 (GMT -0500)
Huron Regional

Weather History for KHON - September, 2013

Change the Weather History Date:

Wednesday, September 18, 2013

  Actual Average Record
Temperature  
Mean Temperature 80 °F 61 °F  
Max Temperature 94 °F 74 °F 96 °F (1891)
Min Temperature 66 °F 48 °F 27 °F (1902)
Degree Days  
Heating Degree Days 0 6  
Month to date heating degree days 21 66  
Since 1 July heating degree days 43 95  
Cooling Degree Days 15 2  
Month to date cooling degree days 127 59  
Year to date cooling degree days 815 728  
Growing Degree Days 28 (Base 50)    
Moisture  
Dew Point 65 °F    
Average Humidity 70    
Maximum Humidity 94    
Minimum Humidity 29    
Precipitation  
Precipitation 0.00 in 0.08 in 1.87 in (1988)
Month to date precipitation 0.22 1.56  
Year to date precipitation 17.42 18.82  
Snow  
Snow 0.00 in 0.00 in T in (1942)
Month to date snowfall 0.0 0.0  
Since 1 July snowfall 0.0 0.0  
Since 1 September snowfall 0.0 0.0  
Snow Depth 0.00 in    
Sea Level Pressure  
Sea Level Pressure 29.61 in    
Wind  
Wind Speed 12 mph (SSE)    
Max Wind Speed 24 mph    
Max Gust Speed 30 mph    
Visibility 8 miles    
Events      
T = Trace of Precipitation, MM = Missing Value Source: NWS Daily Summary

Daily Weather History Graph

Daily Weather History Graph

Search for Another Location

Airport or City:

Trip Planner

Search our weather history database for the weather conditions in past years. The results will help you decide how hot, cold, wet, or windy it might be!

Date:

Astronomy

Sep. 18, 2013 Rise Set
Actual Time 7:15 AM CDT 7:37 PM CDT
Civil Twilight 6:46 AM CDT 8:06 PM CDT
Nautical Twilight 6:12 AM CDT 8:40 PM CDT
Astronomical Twilight 5:36 AM CDT 9:15 PM CDT
Moon 7:00 PM CDT (9/18) 6:19 AM CDT (9/18)
Length of Visible Light 13h 19m
Length of Day
12h 21m
Waxing Gibbous, 99% of the Moon is Illuminated
Sep 18
Waxing Gibbous
Sep 19
Full
Sep 26
Last Quarter
Oct 4
New
Oct 11
First Quarter

Hourly Weather History & Observations

Time (CDT) Temp. Heat Index Dew Point Humidity Pressure Visibility Wind Dir Wind Speed Gust Speed Precip Events Conditions
12:30 AM 66.2 °F - 62.6 °F 88% 29.75 in 7.0 mi SSE 9.2 mph - N/A   Overcast
12:55 AM 66.9 °F - 64.0 °F 90% 29.73 in 7.0 mi SSE 13.8 mph 18.4 mph N/A   Overcast
1:55 AM 68.0 °F - 64.0 °F 87% 29.71 in 8.0 mi SSE 8.1 mph 17.3 mph N/A   Overcast
2:55 AM 68.0 °F - 64.0 °F 87% 29.69 in 6.0 mi SSE 10.4 mph 19.6 mph N/A   Overcast
3:55 AM 66.9 °F - 64.0 °F 90% 29.67 in 5.0 mi SSE 10.4 mph 20.7 mph N/A   Overcast
4:08 AM 68.0 °F - 64.4 °F 88% 29.69 in 5.0 mi SSE 9.2 mph - N/A   Overcast
4:55 AM 66.9 °F - 64.0 °F 90% 29.65 in 5.0 mi SSE 11.5 mph 18.4 mph N/A   Overcast
5:55 AM 66.0 °F - 64.0 °F 93% 29.64 in 4.0 mi South 10.4 mph - N/A   Mostly Cloudy
6:55 AM 66.0 °F - 64.0 °F 93% 29.64 in 4.0 mi SSE 9.2 mph - N/A   Partly Cloudy
7:36 AM 66.2 °F - 64.4 °F 94% 29.66 in 3.0 mi Variable 6.9 mph - N/A   Mostly Cloudy
7:46 AM 66.2 °F - 64.4 °F 94% 29.66 in 3.0 mi Variable 6.9 mph - N/A   Scattered Clouds
7:55 AM 66.9 °F - 64.0 °F 90% 29.65 in 3.0 mi SSE 10.4 mph - N/A   Scattered Clouds
8:55 AM 69.1 °F - 64.9 °F 87% 29.64 in 5.0 mi SSE 10.4 mph - N/A   Clear
9:36 AM 71.6 °F - 66.2 °F 83% 29.65 in 6.0 mi SSE 12.7 mph 19.6 mph N/A   Haze
9:55 AM 73.0 °F - 66.0 °F 79% 29.63 in 7.0 mi SSE 12.7 mph 20.7 mph N/A   Partly Cloudy
10:55 AM 77.0 °F - 66.0 °F 69% 29.62 in 10.0 mi South 12.7 mph 20.7 mph N/A   Clear
11:55 AM 81.0 °F 83.0 °F 66.0 °F 60% 29.60 in 10.0 mi South 12.7 mph 19.6 mph N/A   Clear
12:55 PM 84.0 °F 86.5 °F 66.9 °F 56% 29.58 in 10.0 mi South 13.8 mph 21.9 mph N/A   Clear
1:55 PM 87.1 °F 89.2 °F 66.0 °F 49% 29.56 in 10.0 mi South 12.7 mph 23.0 mph N/A   Clear
2:55 PM 90.0 °F 92.4 °F 66.0 °F 45% 29.54 in 10.0 mi South 12.7 mph 20.7 mph N/A   Clear
3:55 PM 93.0 °F 94.6 °F 64.0 °F 38% 29.52 in 10.0 mi South 13.8 mph 23.0 mph N/A   Clear
4:55 PM 93.9 °F 95.6 °F 64.0 °F 37% 29.51 in 10.0 mi South 11.5 mph 20.7 mph N/A   Clear
5:55 PM 91.9 °F 93.3 °F 64.0 °F 39% 29.51 in 10.0 mi SSE 16.1 mph 21.9 mph N/A   Clear
6:55 PM 89.1 °F 91.0 °F 64.9 °F 45% 29.50 in 10.0 mi SSE 11.5 mph 20.7 mph N/A   Clear
7:55 PM 84.9 °F 87.1 °F 66.0 °F 53% 29.51 in 10.0 mi SSE 11.5 mph - N/A   Clear
8:55 PM 82.0 °F 84.5 °F 66.9 °F 60% 29.51 in 10.0 mi SSE 11.5 mph 19.6 mph N/A   Clear
9:55 PM 81.0 °F 83.3 °F 66.9 °F 62% 29.52 in 10.0 mi SSE 10.4 mph 19.6 mph N/A   Scattered Clouds
10:55 PM 70.0 °F - 60.1 °F 71% 29.58 in 10.0 mi ENE 19.6 mph 27.6 mph N/A   Mostly Cloudy
11:55 PM 68.0 °F - 61.0 °F 78% 29.58 in 10.0 mi ENE 10.4 mph - N/A   Clear